格洛纳斯-795 COSMOS 2403 [GLONASS]

导读

COSMOS 2403是俄罗斯(原独联体CIS)GLONASS全球卫星导航系统的组网卫星,于2003年12月10日发射升空。作为格洛纳斯系统的空间段节点,它运行在中地球轨道,为全球用户提供定位、导航与授时服务,兼顾军用与民用领域需求,该卫星补充了系统服务覆盖,提升了导航服务的可靠性与稳定性,是俄罗斯卫星导航体系建设中的重要一环,助力GLONASS系统维持全球服务能力。

Basic Information
目录编号:
28114
目录名称:
COSMOS 2403 (GLONASS)
国际标识:
2003-056C
轨道中心:
EARTH
卫星名称:
格洛纳斯-795
卫星全名:
格洛纳斯-795 COSMOS 2403 [GLONASS]
卫星状态:
在轨 (已飞行8224 天)
发射日期:
2003-12-10 UTC
国别 :
俄罗斯(独联体) (CIS)
星等 :
--
Orbit Information
数据来源 国际轨道数据 AOE轨道数据
星历时间 2026-06-16T13:18:48+0800
7小时前
查看轨道信息
2026-06-14T07:00:00+0800
2天前
查看轨道信息
半长轴 25507.825km 25507.833km
偏心率 0.0061426 0.0061375
轨道倾角 64.274° 64.273°
近地点辐角 62.925° 62.907°
升交点赤经 62.279° 62.359°
平近点角 128.640° 192.500°
近地点 18973.003km 18973.141km
远地点 19286.373km 19286.251km
周期 675.725分钟 675.725分钟
每日圈数 2.131045 2.131044
Detailed Information
平衡模式:
三轴稳定
覆盖范围:
全球
运营商:
列舍特涅夫卫星信息系统
运营商所在国:
俄罗斯
制造商(研发单位):
列舍特涅夫卫星信息系统
制造商所在国:
俄罗斯
使用方式:
暂无
Satellite Introduction
格洛纳斯(GLONASS )是苏联/俄罗斯研制卫星导航系统。标准配置为24颗卫星,其中18颗卫星就能保证该系统为俄罗斯境内用户提供全部服务。该卫星已退役。
2D Orbit Map
3D Orbit Map
Orbit Altitude Analysis Chart
Orbit Inclination Analysis Chart
Orbit Comprehensive Analysis Chart
View Comprehensive Chart